Regional Weather Roundup
Issued by NWS

Home | Current Version | Previous Version | Graphics & Text | Print | Product List | Glossary On
Versions: 1 2 3 4 5 6 7 8 9 10 11 12 13 14 15 16 17 18 19 20 21 22 23 24 25 26 27 28 29 30 31 32 33 34 35 36 37 38 39 40 41 42 43 44 45 46 47 48 49 50
026
ASUS44 KLIX 190105
RWRLA
LOUISIANA WEATHER ROUNDUP
NATIONAL WEATHER SERVICE NEW ORLEANS LA
700 PM CST THU DEC 18 2014

NOTE: "FAIR" INDICATES FEW OR NO CLOUDS BELOW 12,000 FEET WITH NO
      SIGNIFICANT WEATHER AND/OR OBSTRUCTIONS TO VISIBILITY.
      SKY/WX - SKY CONDITION AND SIGNIFICANT WEATHER.
      TMP - AIR TEMPERATURE.    DP   - DEWPOINT TEMPERATURE.
      RH  - RELATIVE HUMIDITY.  PRES - PRESSURE.
      HX  - HEAT INDEX.         WCI  - WIND CHILL INDEX.

*  THESE STATIONS ARE NOT NWS OR FAA STATIONS AND ARE NOT UNDER
   NWS QUALITY CONTROL.

LAZ040-048-061>063-065-066-069-190200-
SOUTHEAST LOUISIANA

CITY           SKY/WX    TMP DP  RH WIND       PRES   REMARKS
N.O. AUDUBON     N/A     62  58  90 MISG        N/A
N.O. INTL ARPT CLOUDY    59  54  83 E12       30.13R
N.O. LAKEFRONT CLOUDY    60  54  80 E13       30.13S
N.O. DOWNTOWN* CLOUDY    59  52  77 NE12      30.13F
SLIDELL        CLOUDY    60  52  74 E5        30.13R
BATON ROUGE    CLOUDY    57  55  93 E5        30.12R
BOOTHVILLE     CLOUDY    61  57  87 E3        30.12R
BELLE CHASSE   LGT RAIN  60  58  92 N8        30.12R
BOGALUSA*      DRIZZLE   54  51  89 CALM      30.16R
GALLIANO*      DRIZZLE   64  60  88 MISG      30.10F
NEW ROADS*     CLOUDY    54  53  97 NE5       30.12R
GONZALES*      CLOUDY    60  56  87 E7        30.12R
HAMMOND*       NOT AVBL
HOUMA*         LGT RAIN  61  60  97 N5        30.10R
PORT FOURCHON* CLOUDY    66  63  88 SE7       30.13S

$$

LAZ041-044-053-054-190200-
SOUTHWEST LOUISIANA

CITY           SKY/WX    TMP DP  RH WIND       PRES   REMARKS
LAKE CHARLES   CLOUDY    57  52  83 NE16      30.09R
LAFAYETTE      CLOUDY    60  53  77 NE3       30.11R
PATTERSON      CLOUDY    61  61 100 NE7       30.11R
SALT POINT       N/A     66  62  87 VRB3      30.07R
NEW IBERIA     CLOUDY    63  54  72 NE8       30.10R
CHENAULT AIRPK CLOUDY    55  54  94 NE7       30.11R

$$

LAZ027-028-190200-
CENTRAL LOUISIANA

CITY           SKY/WX    TMP DP  RH WIND       PRES   REMARKS
FORT POLK      CLOUDY    52  51  95 NE6       30.12R
ALEXANDRIA INT CLOUDY    52  49  89 E3        30.13R
ALEXANDRIA     CLOUDY    53  49  86 CALM      30.14R

$$

LAZ001-002-190200-
NORTHWEST LOUISIANA

CITY           SKY/WX    TMP DP  RH WIND       PRES   REMARKS
SHREVEPORT     CLOUDY    51  47  86 E5        30.15R
BARKSDALE AFB  NOT AVBL
DTN SHREVEPORT CLOUDY    50  46  86 NE3       30.16R

$$

LAZ014-016-190200-
NORTHEAST LOUISIANA

CITY           SKY/WX    TMP DP  RH WIND       PRES   REMARKS
MONROE         MOCLDY    49  46  90 NE3       30.17R
TALLULAH       CLOUDY    49  45  86 E3        30.17R

$$




USA.gov is the U.S. government's official web portal to all federal, state and local government web resources and services.